Tracking 30509 objects as of 21-May-2025
HD Live streaming from Space Station
objects crossing your sky now

THOR ABLESTAR DEB

Track THOR ABLESTAR DEB now!
10-day predictions


NORAD ID: 652
Int'l Code: 1961-015HD
Perigee: 784.2 km
Apogee: 901.0 km
Inclination: 66.7 °
Period: 101.6 minutes
Semi major axis: 7213 km
RCS: 0.0233 m2 (small)
Launch date: June 29, 1961
Source: United States (US)
Launch site: AIR FORCE EASTERN TEST RANGE (AFETR)

Note: This is SATELLITE DEBRIS
Your satellite tracking list
Your tracking list is empty




NASA's NSSDC Master Catalog

Two Line Element Set (TLE):
1   652U 61015HD  25141.07999901  .00001835  00000-0  92291-3 0  9996
2   652  66.7070  31.8249 0080947 277.9259  81.2651 14.17010662238674
Source of the keplerian elements: AFSPC